カタログに戻る

COSMOS 1823 DEB

運用中LEO
NORAD 39817·DEBRIS·🇷🇺 Russia

打ち上げ Feb 20, 1987 から Plesetsk Cosmodrome

Loading…

次のパス (今後24時間)

TLE

経年Source: Space-Track

元期: Sep 8, 2026, 08:14 UTC

1 39817U 87020ER  26251.34308080  .00000154  00000-0  10926-2 0  9997
2 39817  73.7156 123.4016 0021395  50.5655  69.5590 12.52173743 15681

AllMySatでCOSMOS 1823 DEBをリアルタイム追跡

Download on the App Store